Weather in Mednoye

Russia / Tver Oblast     56°55′38″N   35°28′24″E
temp.,
°C
wind,
m/s
gust,
m/s
humid.,
%
clouds,
%
prec.,
mm/h
press.,
hPa
HPBL,
m
15 april, thu
thu1500:00+9n5993100 0.0 1018383
03:00+8nne5991100 0.0 1019540
06:00+7nne51090100 0.0 1019486
09:00+7nne51085100 0.0 1020557
12:00+10ne6975100 0.0 1020688
15:00+11ne6972100 0.0 1020946
18:00+10ne61275100 0.0 1021839
21:00+8ne71481100 0.0 1021683
16 april, fri
fri1600:00+6ene61486100 0.0 1022603
03:00+5ene61387100 0.0 1022560
06:00+5ene51388100 0.0 1023582
09:00+6ene51182100 0.0 1023634
12:00+9ene6973100 0.0 1024795
15:00+12ene686597 0.0 10241080
18:00+12ene61066100 0.0 10241069
21:00+9ene51371100 0.0 1025725
17 april, sat
sat1700:00+7ene51368100 0.0 1026550
03:00+5ene51272100 0.0 1026428
06:00+4ene51278100 0.0 1027447
09:00+7ene5116777 0.0 1027554
12:00+11ene685457 0.0 1027987
15:00+13ene684758 0.0 10261293
18:00+12ene59476 0.0 10261124
21:00+8ene412585 0.0 1027399
18 april, sun
sun1800:00+5ne412715 0.0 1027359
03:00+4ne411770 0.0 1028312
06:00+3ne411800 0.0 1028312
09:00+8ene510580 0.0 1028715
12:00+11ene574481 0.0 10271462
15:00+13ene67429 0.0 10271842
18:00+11ene584844 0.0 10271362
21:00+7ene3106760 0.0 1028245
19 april, mon
mon1900:00+5ne3876100 0.0 1029189
03:00+4ne268275 0.0 1029139
06:00+3ene3889100 0.0 1030174
09:00+8ene466999 0.0 1030502
12:00+11ene4653100 0.0 10291440
15:00+12ene454585 0.0 10281714
18:00+11ene454769 0.0 10281241
21:00+6ene395913 0.0 1029253